N5ZPR Weather Reports


Display with metric or nautical units.
time (UTC)temp
F
wind
direction
speed
MPH
gust
MPH
rain 1hr
in
rain 24hr
in
rain mn
in
humidity
%
barometer
mb
20260504082003 61 154 3.0 9.0 0.00 0.00 0.00 73 1011.9
20260504050003 64 123 1.0 5.0 0.00 0.00 0.00 65 1013.7
20260504045005 64 162 2.0 5.0 0.00 0.00 0.00 64 1013.7
20260504042004 65 149 2.0 6.0 0.00 0.00 0.00 60 1013.7
20260504041003 66 156 2.0 5.0 0.00 0.00 0.00 60 1013.7
20260504040004 66 158 2.0 5.0 0.00 0.00 0.00 59 1013.7
20260504035003 67 102 2.0 5.0 0.00 0.00 0.00 58 1013.7
20260504034003 67 155 2.0 6.0 0.00 0.00 0.00 58 1013.7
20260504033003 67 171 2.0 6.0 0.00 0.00 0.00 57 1013.7
20260504032003 67 145 2.0 6.0 0.00 0.00 0.00 57 1013.7
20260504031004 68 202 3.0 7.0 0.00 0.00 0.00 56 1013.7
20260504030004 68 157 1.0 6.0 0.00 0.00 0.00 56 1013.6
20260504025003 68 200 1.0 3.0 0.00 0.00 0.00 55 1013.6
20260504024003 69 183 2.0 7.0 0.00 0.00 0.00 54 1013.6
20260504022003 69 166 1.0 3.0 0.00 0.00 0.00 51 1013.1
20260504021003 70 152 1.0 5.0 0.00 0.00 0.00 49 1013.1
20260504020003 71 169 1.0 5.0 0.00 0.00 0.00 48 1013.1
20260504014004 72 171 2.0 6.0 0.00 0.00 0.00 45 1013.1
20260504012003 73 143 2.0 7.0 0.00 0.00 0.00 44 1013.1
20260504011003 74 110 1.0 7.0 0.00 0.00 0.00 43 1013.2
20260504010004 74 161 3.0 7.0 0.00 0.00 0.00 42 1013.1
20260504005004 75 162 2.0 6.0 0.00 0.00 0.00 41 1013.1
20260504003003 76 156 3.0 7.0 0.00 0.00 0.00 40 1013.3
20260504002003 76 138 3.0 8.0 0.00 0.00 0.00 39 1013.3
20260504001003 77 143 3.0 12.0 0.00 0.00 0.00 38 1013.3
20260504000003 77 166 3.0 7.0 0.00 0.00 0.00 37 1013.3
20260503235003 78 154 2.0 8.0 0.00 0.00 0.00 36 1013.3
20260503234004 79 146 3.0 10.0 0.00 0.00 0.00 35 1013.6
20260503233003 79 223 3.0 8.0 0.00 0.00 0.00 34 1013.6
20260503232003 80 172 3.0 8.0 0.00 0.00 0.00 35 1013.6
20260503231004 80 139 3.0 12.0 0.00 0.00 0.00 33 1014.0
20260503230004 81 171 3.0 8.0 0.00 0.00 0.00 34 1014.0
20260503225003 80 200 4.0 9.0 0.00 0.00 0.00 33 1014.0
20260503223004 81 165 3.0 9.0 0.00 0.00 0.00 34 1014.0
20260503222004 81 154 3.0 9.0 0.00 0.00 0.00 33 1014.3
20260503220003 82 172 3.0 10.0 0.00 0.00 0.00 31 1014.3
20260503215004 82 190 6.0 12.0 0.00 0.00 0.00 32 1014.3
20260503214004 82 178 4.0 8.0 0.00 0.00 0.00 32 1015.6
20260503213003 82 164 5.0 12.0 0.00 0.00 0.00 32 1015.6
20260503212004 82 187 5.0 10.0 0.00 0.00 0.00 33 1015.6
20260503211004 83 166 3.0 8.0 0.00 0.00 0.00 33 1015.6
20260503210003 82 185 3.0 13.0 0.00 0.00 0.00 32 1015.6
20260503204004 82 150 2.0 12.0 0.00 0.00 0.00 32 1015.6
20260503203004 83 159 3.0 12.0 0.00 0.00 0.00 33 1016.0
20260503201003 82 154 5.0 10.0 0.00 0.00 0.00 31 1016.0
20260503200003 82 172 3.0 10.0 0.00 0.00 0.00 32 1016.8
20260503195004 82 113 3.0 10.0 0.00 0.00 0.00 34 1016.8
20260503194004 82 204 5.0 12.0 0.00 0.00 0.00 32 1016.8
20260503192003 82 195 3.0 10.0 0.00 0.00 0.00 34 1016.8
20260503191004 82 163 5.0 9.0 0.00 0.00 0.00 35 1017.4
20260503190003 82 221 2.0 12.0 0.00 0.00 0.00 37 1017.4
20260503185003 82 199 5.0 10.0 0.00 0.00 0.00 36 1017.4
20260503184004 81 230 2.0 12.0 0.00 0.00 0.00 36 1017.4
20260503183004 81 233 5.0 10.0 0.00 0.00 0.00 34 1017.9
20260503181004 80 220 5.0 12.0 0.00 0.00 0.00 35 1017.9
20260503175003 79 218 5.0 10.0 0.00 0.00 0.00 40 1019.4
20260503174003 79 219 4.0 12.0 0.00 0.00 0.00 40 1019.4
20260503172003 79 233 4.0 12.0 0.00 0.00 0.00 43 1019.4
20260503171003 78 186 2.0 8.0 0.00 0.00 0.00 45 1019.4
20260503151003 72 212 5.0 10.0 0.00 0.00 0.00 49 1019.5